Darstellungsparameter: Aktuell verwendete Einstellungen:
Skalierung der Graphiken ... ?
xyx+y,   Skalierungsfaktor:      Skalierung: Modus: x, Faktor: 1
Darstellungszeitraum ... ?
Vom - - bis: - -   Zeitraum: 03.06.2014 - 04.06.2014
Min/Max/Avg-Anzeige ... ?
Zeige MMA aktuell
Zeige MMA Monat
Zeige MMA alles
Zeige --A aktuell
Zeige --A Monat
Zeige --A alles
Keine MMA-Anzeige
MMA:
Keine MMA-Graphiken
MMA-Basis: 03.06.2014 - 04.06.2014
Quicknavigation für Darstellung... ?
Tage:      1T, 2T, 3T, 5T -1T -2T -3T -5T +1T +2T +3T +5T
Wochen: 1W, 2W, 3W -1W -2W -3W +1W +2W +3W
Monate: 1M, 3M, 6M -1M -3M -6M +1M +3M +6M
Jahre:    1J, 3J, 5J, 10J -1J -3J -5J -10J +1J +3J +5J +10J
Nutze für die Darstellung ... ?
Originaldaten oder Mittelwerte auf ...
Stundenbasis Tagesbasis Wochenbasis
Monatsbasis Jahresbasis      Datenbasis: Original-Daten
Darstellen als:
Statistik (Auto) Statistik J:M      Darstellung:
Zur Graphik,    zurück zur Übersicht aller Sensoren.
 
Tabellarische Datenbersicht: ?
 
Sensor: Nr:Datum:Temp:Abs-Feuchte:Windchill:Wind:
Aussen-T/F 1 03-06-2014 00:00:00 15 C 9.23 g/m*3 15 C 0 km/h
2 03-06-2014 00:05:00 14.9 C 9.3 g/m*3 14.9 C 0 km/h
3 03-06-2014 00:10:00 14.8 C 9.25 g/m*3 14.8 C 0 km/h
4 03-06-2014 00:15:00 14.8 C 9.37 g/m*3 14.8 C 0 km/h
5 03-06-2014 00:20:00 14.7 C 9.19 g/m*3 14.7 C 0 km/h
6 03-06-2014 00:25:00 14.7 C 9.32 g/m*3 14.7 C 0 km/h
7 03-06-2014 00:30:00 14.6 C 9.26 g/m*3 14.6 C 0 km/h
8 03-06-2014 00:35:00 14.6 C 9.39 g/m*3 14.6 C 0 km/h
9 03-06-2014 00:40:00 14.4 C 9.27 g/m*3 14.4 C 0 km/h
10 03-06-2014 00:45:00 14.2 C 9.16 g/m*3 14.2 C 0 km/h
11 03-06-2014 00:50:00 14.1 C 9.22 g/m*3 14.1 C 0 km/h
12 03-06-2014 00:55:00 14 C 9.17 g/m*3 14 C 0 km/h
13 03-06-2014 01:00:00 13.9 C 9.11 g/m*3 13.9 C 0 km/h
14 03-06-2014 01:05:00 13.8 C 9.17 g/m*3 13.8 C 0 km/h
15 03-06-2014 01:10:00 13.7 C 9.24 g/m*3 13.7 C 0 km/h
16 03-06-2014 01:15:00 13.7 C 9.24 g/m*3 13.7 C 0 km/h
17 03-06-2014 01:20:00 13.6 C 9.18 g/m*3 13.6 C 0 km/h
18 03-06-2014 01:25:00 13.4 C 9.18 g/m*3 13.4 C 0 km/h
19 03-06-2014 01:30:00 13.4 C 9.18 g/m*3 13.4 C 0 km/h
20 03-06-2014 01:35:00 13.3 C 9.13 g/m*3 13.3 C 0 km/h
21 03-06-2014 01:40:00 13.2 C 9.07 g/m*3 13.2 C 0 km/h
22 03-06-2014 01:45:00 13.2 C 9.07 g/m*3 13.2 C 0 km/h
23 03-06-2014 01:50:00 13.1 C 9.13 g/m*3 13.1 C 0 km/h
24 03-06-2014 01:55:00 12.9 C 9.02 g/m*3 12.9 C 0 km/h
25 03-06-2014 02:00:00 12.8 C 9.07 g/m*3 12.8 C 0 km/h
Sensor: Nr:Datum:Temp:Abs-Feuchte:Windchill:Wind:
Aussen-T/F 26 03-06-2014 02:05:00 12.7 C 9.02 g/m*3 12.7 C 3.2 km/h
27 03-06-2014 02:10:00 12.7 C 9.02 g/m*3 12.7 C 3.2 km/h
28 03-06-2014 02:15:00 12.5 C 8.91 g/m*3 12.5 C 0 km/h
29 03-06-2014 02:20:00 12.4 C 8.96 g/m*3 12.4 C 0 km/h
30 03-06-2014 02:25:00 12.3 C 8.9 g/m*3 12.3 C 0 km/h
31 03-06-2014 02:30:00 12.2 C 8.85 g/m*3 12.2 C 0 km/h
32 03-06-2014 02:35:00 12.1 C 8.79 g/m*3 12.1 C 0 km/h
33 03-06-2014 02:40:00 11.9 C 8.79 g/m*3 11.9 C 0 km/h
34 03-06-2014 02:45:00 11.8 C 8.74 g/m*3 11.8 C 0 km/h
35 03-06-2014 02:50:00 11.8 C 8.74 g/m*3 11.8 C 0 km/h
36 03-06-2014 02:55:00 11.7 C 8.79 g/m*3 11.7 C 0 km/h
37 03-06-2014 03:00:00 11.7 C 8.79 g/m*3 11.7 C 0 km/h
38 03-06-2014 03:05:00 11.5 C 8.78 g/m*3 11.5 C 0 km/h
39 03-06-2014 03:10:00 11.4 C 8.72 g/m*3 11.4 C 0 km/h
40 03-06-2014 03:15:00 11.3 C 8.67 g/m*3 11.3 C 0 km/h
41 03-06-2014 03:20:00 11.2 C 8.62 g/m*3 11.2 C 0 km/h
42 03-06-2014 03:25:00 11.1 C 8.66 g/m*3 11.1 C 0 km/h
43 03-06-2014 03:30:00 11.1 C 8.66 g/m*3 11.1 C 0 km/h
44 03-06-2014 03:35:00 10.9 C 8.55 g/m*3 10.9 C 0 km/h
45 03-06-2014 03:40:00 10.9 C 8.55 g/m*3 10.9 C 0 km/h
46 03-06-2014 03:45:00 10.8 C 8.6 g/m*3 10.8 C 0 km/h
47 03-06-2014 03:50:00 10.8 C 8.6 g/m*3 10.8 C 0 km/h
48 03-06-2014 03:55:00 10.8 C 8.6 g/m*3 10.8 C 0 km/h
49 03-06-2014 04:00:00 10.7 C 8.55 g/m*3 10.7 C 0 km/h
50 03-06-2014 04:05:00 10.6 C 8.49 g/m*3 10.6 C 0 km/h
Sensor: Nr:Datum:Temp:Abs-Feuchte:Windchill:Wind:
Aussen-T/F 51 03-06-2014 04:10:00 10.5 C 8.53 g/m*3 10.5 C 0 km/h
52 03-06-2014 04:15:00 10.4 C 8.48 g/m*3 10.4 C 0 km/h
53 03-06-2014 04:20:00 10.4 C 8.48 g/m*3 10.4 C 0 km/h
54 03-06-2014 04:25:00 10.3 C 8.52 g/m*3 10.3 C 0 km/h
55 03-06-2014 04:30:00 10.3 C 8.52 g/m*3 10.3 C 0 km/h
56 03-06-2014 04:35:00 10.2 C 8.47 g/m*3 10.2 C 0 km/h
57 03-06-2014 04:40:00 10.2 C 8.47 g/m*3 10.2 C 0 km/h
58 03-06-2014 04:45:00 10.1 C 8.51 g/m*3 10.1 C 0 km/h
59 03-06-2014 04:50:00 10.1 C 8.51 g/m*3 10.1 C 0 km/h
60 03-06-2014 04:55:00 10 C 8.46 g/m*3 10 C 0 km/h
61 03-06-2014 05:00:00 9.9 C 8.4 g/m*3 9.9 C 0 km/h
62 03-06-2014 05:05:00 9.9 C 8.5 g/m*3 9.9 C 0 km/h
63 03-06-2014 05:10:00 9.9 C 8.5 g/m*3 9.9 C 0 km/h
64 03-06-2014 05:15:00 9.9 C 8.5 g/m*3 9.9 C 0 km/h
65 03-06-2014 05:20:00 9.8 C 8.44 g/m*3 9.8 C 0 km/h
66 03-06-2014 05:25:00 9.8 C 8.44 g/m*3 9.8 C 0 km/h
67 03-06-2014 05:30:00 9.8 C 8.54 g/m*3 9.8 C 0 km/h
68 03-06-2014 05:35:00 9.8 C 8.54 g/m*3 9.8 C 0 km/h
69 03-06-2014 05:40:00 9.8 C 8.54 g/m*3 9.8 C 0 km/h
70 03-06-2014 05:45:00 9.8 C 8.54 g/m*3 9.8 C 0 km/h
71 03-06-2014 05:50:00 9.8 C 8.54 g/m*3 9.8 C 0 km/h
72 03-06-2014 05:55:00 9.8 C 8.54 g/m*3 9.8 C 0 km/h
73 03-06-2014 06:00:00 9.8 C 8.54 g/m*3 9.8 C 0 km/h
74 03-06-2014 06:05:00 9.8 C 8.54 g/m*3 9.8 C 0 km/h
75 03-06-2014 06:10:00 9.9 C 8.68 g/m*3 9.25 C 6.4 km/h
Sensor: Nr:Datum:Temp:Abs-Feuchte:Windchill:Wind:
Aussen-T/F 76 03-06-2014 06:15:00 10 C 8.74 g/m*3 9.37 C 6.4 km/h
77 03-06-2014 06:20:00 10.1 C 8.7 g/m*3 10.1 C 0 km/h
78 03-06-2014 06:25:00 10.1 C 8.7 g/m*3 10.1 C 0 km/h
79 03-06-2014 06:30:00 10.2 C 8.76 g/m*3 10.2 C 0 km/h
80 03-06-2014 06:35:00 10.2 C 8.76 g/m*3 10.2 C 0 km/h
81 03-06-2014 06:40:00 10.3 C 8.81 g/m*3 10.3 C 0 km/h
82 03-06-2014 06:45:00 10.4 C 8.87 g/m*3 10.4 C 0 km/h
83 03-06-2014 06:50:00 10.5 C 8.92 g/m*3 10.5 C 3.2 km/h
84 03-06-2014 06:55:00 10.6 C 8.88 g/m*3 10.6 C 0 km/h
85 03-06-2014 07:00:00 10.7 C 8.94 g/m*3 10.7 C 0 km/h
86 03-06-2014 07:05:00 10.8 C 8.99 g/m*3 10.8 C 0 km/h
87 03-06-2014 07:10:00 10.9 C 9.05 g/m*3 10.9 C 1.6 km/h
88 03-06-2014 07:15:00 11 C 9.01 g/m*3 11 C 3.2 km/h
89 03-06-2014 07:20:00 11.1 C 9.07 g/m*3 11.1 C 3.2 km/h
90 03-06-2014 07:25:00 11.3 C 9.18 g/m*3 11.3 C 4.8 km/h
91 03-06-2014 07:30:00 11.4 C 9.14 g/m*3 11.4 C 4.8 km/h
92 03-06-2014 07:35:00 11.6 C 9.25 g/m*3 11.6 C 3.2 km/h
93 03-06-2014 07:40:00 11.7 C 9.2 g/m*3 11.7 C 4.8 km/h
94 03-06-2014 07:45:00 11.8 C 9.26 g/m*3 11.8 C 4.8 km/h
95 03-06-2014 07:50:00 12.1 C 9.44 g/m*3 12.1 C 3.2 km/h
96 03-06-2014 07:55:00 12.2 C 9.28 g/m*3 12.2 C 4.8 km/h
97 03-06-2014 08:00:00 12.3 C 9.34 g/m*3 12.3 C 4.8 km/h
98 03-06-2014 08:05:00 12.4 C 9.4 g/m*3 12.4 C 3.2 km/h
99 03-06-2014 08:10:00 12.5 C 9.35 g/m*3 12.5 C 3.2 km/h
100 03-06-2014 08:15:00 12.6 C 9.4 g/m*3 12.6 C 1.6 km/h
Sensor: Nr:Datum:Temp:Abs-Feuchte:Windchill:Wind:
Aussen-T/F 101 03-06-2014 08:20:00 12.7 C 9.46 g/m*3 12.7 C 1.6 km/h
102 03-06-2014 08:25:00 12.9 C 9.58 g/m*3 12.9 C 1.6 km/h
103 03-06-2014 08:30:00 13.1 C 9.47 g/m*3 13.1 C 3.2 km/h
104 03-06-2014 08:35:00 13.3 C 9.59 g/m*3 13.3 C 1.6 km/h
105 03-06-2014 08:40:00 13.4 C 9.65 g/m*3 13.4 C 3.2 km/h
106 03-06-2014 08:45:00 13.6 C 9.53 g/m*3 13.6 C 3.2 km/h
107 03-06-2014 08:50:00 13.7 C 9.59 g/m*3 13.7 C 4.8 km/h
108 03-06-2014 08:55:00 13.7 C 9.47 g/m*3 13.7 C 1.6 km/h
109 03-06-2014 09:00:00 13.8 C 9.53 g/m*3 13.8 C 3.2 km/h
110 03-06-2014 09:05:00 13.9 C 9.59 g/m*3 13.9 C 3.2 km/h
111 03-06-2014 09:10:00 14.1 C 9.71 g/m*3 14.1 C 3.2 km/h
112 03-06-2014 09:15:00 14.2 C 9.77 g/m*3 14.2 C 0 km/h
113 03-06-2014 09:20:00 14.3 C 9.95 g/m*3 14.3 C 1.6 km/h
114 03-06-2014 09:25:00 14.4 C 10.01 g/m*3 14.4 C 1.6 km/h
115 03-06-2014 09:30:00 14.4 C 10.01 g/m*3 14.4 C 0 km/h
116 03-06-2014 09:35:00 14.6 C 10.26 g/m*3 14.6 C 0 km/h
117 03-06-2014 09:40:00 14.7 C 10.2 g/m*3 14.7 C 1.6 km/h
118 03-06-2014 09:45:00 14.8 C 10.13 g/m*3 14.8 C 0 km/h
119 03-06-2014 09:50:00 15.1 C 10.19 g/m*3 15.1 C 1.6 km/h
120 03-06-2014 09:55:00 15.5 C 10.18 g/m*3 15.5 C 1.6 km/h
121 03-06-2014 10:00:00 16 C 10.63 g/m*3 16 C 1.6 km/h
122 03-06-2014 10:05:00 16.5 C 10.95 g/m*3 16.5 C 0 km/h
123 03-06-2014 10:10:00 17.1 C 10.77 g/m*3 17.1 C 1.6 km/h
124 03-06-2014 10:15:00 17.4 C 10.67 g/m*3 17.4 C 3.2 km/h
125 03-06-2014 10:20:00 17.8 C 10.62 g/m*3 17.8 C 3.2 km/h
Sensor: Nr:Datum:Temp:Abs-Feuchte:Windchill:Wind:
Aussen-T/F 126 03-06-2014 10:25:00 17.9 C 10.69 g/m*3 17.9 C 1.6 km/h
127 03-06-2014 10:30:00 18.2 C 10.72 g/m*3 18.2 C 0 km/h
128 03-06-2014 10:35:00 18.4 C 10.85 g/m*3 18.4 C 4.8 km/h
129 03-06-2014 10:40:00 18.7 C 10.89 g/m*3 18.7 C 3.2 km/h
130 03-06-2014 10:45:00 18.9 C 10.37 g/m*3 18.9 C 3.2 km/h
131 03-06-2014 10:50:00 18.9 C 11.02 g/m*3 18.9 C 3.2 km/h
132 03-06-2014 10:55:00 18.9 C 10.85 g/m*3 18.9 C 1.6 km/h
133 03-06-2014 11:00:00 18.8 C 10.79 g/m*3 18.8 C 1.6 km/h
134 03-06-2014 11:05:00 18.7 C 10.73 g/m*3 18.7 C 0 km/h
135 03-06-2014 11:10:00 18.6 C 11.46 g/m*3 18.6 C 0 km/h
136 03-06-2014 11:15:00 18.6 C 11.14 g/m*3 18.6 C 3.2 km/h
137 03-06-2014 11:20:00 18.6 C 11.14 g/m*3 18.6 C 3.2 km/h
138 03-06-2014 11:25:00 18.9 C 11.18 g/m*3 18.9 C 3.2 km/h
139 03-06-2014 11:30:00 19.3 C 10.78 g/m*3 19.3 C 3.2 km/h
140 03-06-2014 11:35:00 19.7 C 11.21 g/m*3 19.7 C 3.2 km/h
141 03-06-2014 11:40:00 20.1 C 10.95 g/m*3 20.1 C 3.2 km/h
142 03-06-2014 11:45:00 20.6 C 11.1 g/m*3 20.6 C 6.4 km/h
143 03-06-2014 11:50:00 20.9 C 11.47 g/m*3 20.9 C 4.8 km/h
144 03-06-2014 11:55:00 20.8 C 10.5 g/m*3 20.8 C 4.8 km/h
145 03-06-2014 12:00:00 20.7 C 11.34 g/m*3 20.7 C 1.6 km/h
146 03-06-2014 12:05:00 20.1 C 11.47 g/m*3 20.1 C 0 km/h
147 03-06-2014 12:10:00 19.2 C 11.87 g/m*3 19.2 C 0 km/h
148 03-06-2014 12:15:00 18.6 C 11.62 g/m*3 18.6 C 0 km/h
149 03-06-2014 12:20:00 18 C 11.52 g/m*3 18 C 0 km/h
150 03-06-2014 12:25:00 17.7 C 11.62 g/m*3 17.7 C 0 km/h
Sensor: Nr:Datum:Temp:Abs-Feuchte:Windchill:Wind:
Aussen-T/F 151 03-06-2014 12:30:00 17.6 C 11.7 g/m*3 17.6 C 0 km/h
152 03-06-2014 12:35:00 17.6 C 11.55 g/m*3 17.6 C 0 km/h
153 03-06-2014 12:40:00 17.8 C 11.84 g/m*3 17.8 C 0 km/h
154 03-06-2014 12:45:00 18.5 C 11.08 g/m*3 18.5 C 4.8 km/h
155 03-06-2014 12:50:00 19.7 C 10.53 g/m*3 19.7 C 3.2 km/h
156 03-06-2014 12:55:00 20.4 C 9.73 g/m*3 20.4 C 4.8 km/h
157 03-06-2014 13:00:00 21.1 C 9.58 g/m*3 21.1 C 3.2 km/h
158 03-06-2014 13:05:00 21.8 C 9.98 g/m*3 21.8 C 3.2 km/h
159 03-06-2014 13:10:00 22.2 C 9.42 g/m*3 22.2 C 6.4 km/h
160 03-06-2014 13:15:00 22.4 C 9.14 g/m*3 22.4 C 4.8 km/h
161 03-06-2014 13:20:00 22.7 C 9.5 g/m*3 22.7 C 4.8 km/h
162 03-06-2014 13:25:00 22.9 C 8.99 g/m*3 22.9 C 1.6 km/h
163 03-06-2014 13:30:00 23.1 C 8.27 g/m*3 23.1 C 6.4 km/h
164 03-06-2014 13:35:00 23.3 C 8.36 g/m*3 23.3 C 8.1 km/h
165 03-06-2014 13:40:00 23 C 8.22 g/m*3 23 C 4.8 km/h
166 03-06-2014 13:45:00 23.1 C 8.27 g/m*3 23.1 C 4.8 km/h
167 03-06-2014 13:50:00 23.3 C 8.36 g/m*3 23.3 C 8.1 km/h
168 03-06-2014 13:55:00 23.3 C 8.36 g/m*3 23.3 C 6.4 km/h
169 03-06-2014 14:20:00 21.7 C 10.68 g/m*3 21.7 C 1.6 km/h
170 03-06-2014 14:25:00 21 C 10.62 g/m*3 21 C 4.8 km/h
171 03-06-2014 14:30:00 20.9 C 11.11 g/m*3 20.9 C 1.6 km/h
172 03-06-2014 14:35:00 20.8 C 10.5 g/m*3 20.8 C 1.6 km/h
173 03-06-2014 14:40:00 20.8 C 9.6 g/m*3 20.8 C 14.5 km/h
174 03-06-2014 14:45:00 20.7 C 9.72 g/m*3 20.7 C 14.5 km/h
175 03-06-2014 14:50:00 20.6 C 9.84 g/m*3 20.6 C 6.4 km/h
Sensor: Nr:Datum:Temp:Abs-Feuchte:Windchill:Wind:
Aussen-T/F 176 03-06-2014 14:55:00 20.4 C 9.91 g/m*3 20.4 C 4.8 km/h
177 03-06-2014 15:00:00 20.2 C 9.79 g/m*3 20.2 C 6.4 km/h
178 03-06-2014 15:05:00 19.9 C 9.97 g/m*3 19.9 C 9.7 km/h
179 03-06-2014 15:10:00 19.7 C 9.85 g/m*3 19.7 C 8.1 km/h
180 03-06-2014 15:15:00 19.6 C 9.79 g/m*3 19.6 C 6.4 km/h
181 03-06-2014 15:20:00 19.6 C 9.79 g/m*3 19.6 C 8.1 km/h
182 03-06-2014 15:25:00 19.7 C 9.85 g/m*3 19.7 C 11.3 km/h
183 03-06-2014 15:30:00 19.8 C 9.57 g/m*3 19.8 C 6.4 km/h
184 03-06-2014 15:35:00 19.9 C 9.45 g/m*3 19.9 C 3.2 km/h
185 03-06-2014 15:40:00 20.1 C 9.73 g/m*3 20.1 C 6.4 km/h
186 03-06-2014 15:45:00 20.3 C 10.02 g/m*3 20.3 C 8.1 km/h
187 03-06-2014 15:50:00 20.5 C 9.25 g/m*3 20.5 C 9.7 km/h
188 03-06-2014 15:55:00 20.3 C 9.32 g/m*3 20.3 C 8.1 km/h
189 03-06-2014 16:00:00 20.3 C 9.32 g/m*3 20.3 C 3.2 km/h
190 03-06-2014 16:05:00 20.3 C 9.32 g/m*3 20.3 C 1.6 km/h
191 03-06-2014 16:10:00 20.4 C 9.73 g/m*3 20.4 C 8.1 km/h
192 03-06-2014 16:15:00 20.4 C 10.08 g/m*3 20.4 C 3.2 km/h
193 03-06-2014 16:20:00 20.4 C 9.91 g/m*3 20.4 C 0 km/h
194 03-06-2014 16:25:00 20.3 C 10.55 g/m*3 20.3 C 0 km/h
195 03-06-2014 16:30:00 20.1 C 11.65 g/m*3 20.1 C 0 km/h
196 03-06-2014 16:35:00 19.7 C 11.72 g/m*3 19.7 C 0 km/h
197 03-06-2014 16:40:00 19.4 C 11.51 g/m*3 19.4 C 0 km/h
198 03-06-2014 16:45:00 19.2 C 11.71 g/m*3 19.2 C 0 km/h
199 03-06-2014 16:50:00 19 C 11.41 g/m*3 19 C 0 km/h
200 03-06-2014 16:55:00 18.8 C 11.6 g/m*3 18.8 C 0 km/h
Sensor: Nr:Datum:Temp:Abs-Feuchte:Windchill:Wind:
Aussen-T/F 201 03-06-2014 17:00:00 18.8 C 11.6 g/m*3 18.8 C 0 km/h
202 03-06-2014 17:05:00 18.8 C 11.43 g/m*3 18.8 C 0 km/h
203 03-06-2014 17:10:00 18.9 C 11.66 g/m*3 18.9 C 0 km/h
204 03-06-2014 17:15:00 18.9 C 11.83 g/m*3 18.9 C 0 km/h
205 03-06-2014 17:20:00 18.9 C 11.99 g/m*3 18.9 C 0 km/h
206 03-06-2014 17:25:00 18.9 C 11.99 g/m*3 18.9 C 0 km/h
207 03-06-2014 17:30:00 18.8 C 11.92 g/m*3 18.8 C 0 km/h
208 03-06-2014 17:35:00 18.8 C 12.08 g/m*3 18.8 C 0 km/h
209 03-06-2014 17:40:00 18.9 C 11.99 g/m*3 18.9 C 0 km/h
210 03-06-2014 17:45:00 19.1 C 10.82 g/m*3 19.1 C 0 km/h
211 03-06-2014 17:50:00 19.4 C 11.68 g/m*3 19.4 C 1.6 km/h
212 03-06-2014 17:55:00 19.8 C 11.44 g/m*3 19.8 C 1.6 km/h
213 03-06-2014 18:00:00 20.1 C 10.95 g/m*3 20.1 C 3.2 km/h
214 03-06-2014 18:05:00 20.1 C 10.08 g/m*3 20.1 C 6.4 km/h
215 03-06-2014 18:10:00 20.2 C 10.14 g/m*3 20.2 C 4.8 km/h
216 03-06-2014 18:15:00 20.3 C 10.2 g/m*3 20.3 C 3.2 km/h
217 03-06-2014 18:20:00 20.4 C 11.85 g/m*3 20.4 C 1.6 km/h
218 03-06-2014 18:25:00 20.4 C 12.21 g/m*3 20.4 C 0 km/h
219 03-06-2014 18:30:00 20.3 C 12.31 g/m*3 20.3 C 1.6 km/h
220 03-06-2014 18:35:00 20.4 C 9.91 g/m*3 20.4 C 4.8 km/h
221 03-06-2014 18:40:00 20.9 C 9.83 g/m*3 20.9 C 4.8 km/h
222 03-06-2014 18:45:00 21.4 C 9.75 g/m*3 21.4 C 4.8 km/h
223 03-06-2014 18:50:00 21.7 C 9.73 g/m*3 21.7 C 1.6 km/h
224 03-06-2014 18:55:00 21.5 C 11.5 g/m*3 21.5 C 0 km/h
225 03-06-2014 19:00:00 21.2 C 11.68 g/m*3 21.2 C 0 km/h
Sensor: Nr:Datum:Temp:Abs-Feuchte:Windchill:Wind:
Aussen-T/F 226 03-06-2014 19:05:00 20.9 C 11.47 g/m*3 20.9 C 0 km/h
227 03-06-2014 19:10:00 20.5 C 11.57 g/m*3 20.5 C 0 km/h
228 03-06-2014 19:15:00 20.1 C 11.99 g/m*3 20.1 C 0 km/h
229 03-06-2014 19:20:00 19.8 C 11.61 g/m*3 19.8 C 1.6 km/h
230 03-06-2014 19:25:00 19.6 C 11.48 g/m*3 19.6 C 1.6 km/h
231 03-06-2014 19:30:00 19.3 C 11.78 g/m*3 19.3 C 0 km/h
232 03-06-2014 19:35:00 18.9 C 11.66 g/m*3 18.9 C 0 km/h
233 03-06-2014 19:40:00 18.4 C 11.48 g/m*3 18.4 C 0 km/h
234 03-06-2014 19:45:00 18.1 C 11.59 g/m*3 18.1 C 0 km/h
235 03-06-2014 19:50:00 17.8 C 11.38 g/m*3 17.8 C 0 km/h
236 03-06-2014 19:55:00 17.6 C 11.4 g/m*3 17.6 C 1.6 km/h
237 03-06-2014 20:00:00 17.5 C 11.33 g/m*3 17.5 C 1.6 km/h
238 03-06-2014 20:05:00 17.3 C 11.2 g/m*3 17.3 C 0 km/h
239 03-06-2014 20:10:00 17.2 C 11.28 g/m*3 17.2 C 1.6 km/h
240 03-06-2014 20:15:00 17.2 C 11.13 g/m*3 17.2 C 0 km/h
241 03-06-2014 20:20:00 17.1 C 11.21 g/m*3 17.1 C 0 km/h
242 03-06-2014 20:25:00 16.9 C 11.22 g/m*3 16.9 C 0 km/h
243 03-06-2014 20:30:00 16.9 C 11.08 g/m*3 16.9 C 0 km/h
244 03-06-2014 20:35:00 16.8 C 11.01 g/m*3 16.8 C 0 km/h
245 03-06-2014 20:40:00 16.8 C 11.01 g/m*3 16.8 C 1.6 km/h
246 03-06-2014 20:45:00 16.8 C 11.01 g/m*3 16.8 C 0 km/h
247 03-06-2014 20:50:00 16.9 C 11.22 g/m*3 16.9 C 0 km/h
248 03-06-2014 20:55:00 16.9 C 11.22 g/m*3 16.9 C 0 km/h
249 03-06-2014 21:00:00 16.8 C 11.29 g/m*3 16.8 C 0 km/h
250 03-06-2014 21:05:00 16.8 C 11.29 g/m*3 16.8 C 0 km/h
Sensor: Nr:Datum:Temp:Abs-Feuchte:Windchill:Wind:
Aussen-T/F 251 03-06-2014 21:10:00 16.7 C 11.23 g/m*3 16.7 C 1.6 km/h
252 03-06-2014 21:15:00 16.5 C 11.09 g/m*3 16.5 C 0 km/h
253 03-06-2014 21:20:00 16.4 C 10.89 g/m*3 16.4 C 1.6 km/h
254 03-06-2014 21:25:00 16.2 C 10.76 g/m*3 16.2 C 0 km/h
255 03-06-2014 21:30:00 16.1 C 10.69 g/m*3 16.1 C 0 km/h
256 03-06-2014 21:35:00 15.9 C 10.56 g/m*3 15.9 C 0 km/h
257 03-06-2014 21:40:00 15.8 C 10.36 g/m*3 15.8 C 0 km/h
258 03-06-2014 21:45:00 15.7 C 10.3 g/m*3 15.7 C 0 km/h
259 03-06-2014 21:50:00 15.6 C 10.24 g/m*3 15.6 C 0 km/h
260 03-06-2014 21:55:00 15.4 C 10.12 g/m*3 15.4 C 0 km/h
261 03-06-2014 22:00:00 15.3 C 10.06 g/m*3 15.3 C 0 km/h
262 03-06-2014 22:05:00 15.2 C 10.12 g/m*3 15.2 C 0 km/h
263 03-06-2014 22:10:00 15.1 C 10.06 g/m*3 15.1 C 0 km/h
264 03-06-2014 22:15:00 14.9 C 9.94 g/m*3 14.9 C 0 km/h
265 03-06-2014 22:20:00 14.8 C 10.01 g/m*3 14.8 C 0 km/h
266 03-06-2014 22:25:00 14.7 C 9.95 g/m*3 14.7 C 0 km/h
267 03-06-2014 22:30:00 14.6 C 9.89 g/m*3 14.6 C 0 km/h
268 03-06-2014 22:35:00 14.4 C 9.77 g/m*3 14.4 C 0 km/h
269 03-06-2014 22:40:00 14.3 C 9.83 g/m*3 14.3 C 0 km/h
270 03-06-2014 22:45:00 14.2 C 9.89 g/m*3 14.2 C 0 km/h
271 03-06-2014 22:50:00 14.2 C 9.89 g/m*3 14.2 C 0 km/h
272 03-06-2014 22:55:00 14.1 C 9.83 g/m*3 14.1 C 0 km/h
273 03-06-2014 23:00:00 14 C 9.77 g/m*3 14 C 1.6 km/h
274 03-06-2014 23:05:00 13.9 C 9.71 g/m*3 13.9 C 0 km/h
275 03-06-2014 23:10:00 13.9 C 9.83 g/m*3 13.9 C 0 km/h
Sensor: Nr:Datum:Temp:Abs-Feuchte:Windchill:Wind:
Aussen-T/F 276 03-06-2014 23:15:00 13.8 C 9.77 g/m*3 13.8 C 0 km/h
277 03-06-2014 23:20:00 13.7 C 9.71 g/m*3 13.7 C 0 km/h
278 03-06-2014 23:25:00 13.6 C 9.77 g/m*3 13.6 C 0 km/h
279 03-06-2014 23:30:00 13.6 C 9.77 g/m*3 13.6 C 0 km/h
280 03-06-2014 23:35:00 13.4 C 9.65 g/m*3 13.4 C 0 km/h
281 03-06-2014 23:40:00 13.4 C 9.88 g/m*3 13.4 C 0 km/h
282 03-06-2014 23:45:00 13.5 C 9.83 g/m*3 13.5 C 6.4 km/h
283 03-06-2014 23:50:00 13.4 C 9.76 g/m*3 13.4 C 0 km/h
284 03-06-2014 23:55:00 13.4 C 9.76 g/m*3 13.4 C 0 km/h
285 04-06-2014 00:00:00 13.2 C 9.76 g/m*3 13.2 C 0 km/h
286 04-06-2014 00:05:00 13.2 C 9.76 g/m*3 13.2 C 0 km/h
287 04-06-2014 00:10:00 13.1 C 9.81 g/m*3 13.1 C 1.6 km/h
288 04-06-2014 00:15:00 13.1 C 9.81 g/m*3 13.1 C 0 km/h
289 04-06-2014 00:20:00 13 C 9.75 g/m*3 13 C 0 km/h
290 04-06-2014 00:25:00 13 C 9.75 g/m*3 13 C 0 km/h
291 04-06-2014 00:30:00 12.9 C 9.81 g/m*3 12.9 C 0 km/h
292 04-06-2014 00:35:00 12.9 C 9.69 g/m*3 12.9 C 0 km/h
293 04-06-2014 00:40:00 12.8 C 9.74 g/m*3 12.8 C 0 km/h
294 04-06-2014 00:45:00 12.8 C 9.74 g/m*3 12.8 C 0 km/h
295 04-06-2014 00:50:00 12.8 C 9.74 g/m*3 12.8 C 0 km/h
296 04-06-2014 00:55:00 12.8 C 9.74 g/m*3 12.8 C 0 km/h
297 04-06-2014 01:00:00 12.7 C 9.68 g/m*3 12.7 C 0 km/h
298 04-06-2014 01:05:00 12.7 C 9.68 g/m*3 12.7 C 0 km/h
299 04-06-2014 01:10:00 12.5 C 9.68 g/m*3 12.5 C 0 km/h
300 04-06-2014 01:15:00 12.4 C 9.62 g/m*3 12.4 C 0 km/h
Sensor: Nr:Datum:Temp:Abs-Feuchte:Windchill:Wind:
Aussen-T/F 301 04-06-2014 01:20:00 12.3 C 9.56 g/m*3 12.3 C 0 km/h
302 04-06-2014 01:25:00 12.3 C 9.66 g/m*3 12.3 C 0 km/h
303 04-06-2014 01:30:00 12.2 C 9.5 g/m*3 12.2 C 0 km/h
304 04-06-2014 01:35:00 12.1 C 9.54 g/m*3 12.1 C 0 km/h
305 04-06-2014 01:40:00 11.9 C 9.43 g/m*3 11.9 C 0 km/h
306 04-06-2014 01:45:00 11.9 C 9.43 g/m*3 11.9 C 0 km/h
307 04-06-2014 01:50:00 11.9 C 9.43 g/m*3 11.9 C 0 km/h
308 04-06-2014 01:55:00 11.9 C 9.43 g/m*3 11.9 C 0 km/h
309 04-06-2014 02:00:00 11.8 C 9.47 g/m*3 11.8 C 1.6 km/h
310 04-06-2014 02:05:00 11.8 C 9.47 g/m*3 11.8 C 1.6 km/h
311 04-06-2014 02:10:00 11.8 C 9.47 g/m*3 11.8 C 0 km/h
312 04-06-2014 02:15:00 11.8 C 9.47 g/m*3 11.8 C 0 km/h
313 04-06-2014 02:20:00 11.7 C 9.52 g/m*3 11.7 C 0 km/h
314 04-06-2014 02:25:00 11.7 C 9.52 g/m*3 11.7 C 0 km/h
315 04-06-2014 02:30:00 11.6 C 9.46 g/m*3 11.6 C 0 km/h
316 04-06-2014 02:35:00 11.5 C 9.4 g/m*3 11.5 C 0 km/h
317 04-06-2014 02:40:00 11.4 C 9.34 g/m*3 11.4 C 0 km/h
318 04-06-2014 02:45:00 11.4 C 9.34 g/m*3 11.4 C 0 km/h
319 04-06-2014 02:50:00 11.3 C 9.38 g/m*3 11.3 C 0 km/h
320 04-06-2014 02:55:00 11.3 C 9.38 g/m*3 11.3 C 0 km/h
321 04-06-2014 03:00:00 11.3 C 9.38 g/m*3 11.3 C 0 km/h
322 04-06-2014 03:05:00 11.3 C 9.38 g/m*3 11.3 C 0 km/h
323 04-06-2014 03:10:00 11.2 C 9.33 g/m*3 11.2 C 0 km/h
324 04-06-2014 03:15:00 11.1 C 9.27 g/m*3 11.1 C 0 km/h
325 04-06-2014 03:20:00 11.1 C 9.27 g/m*3 11.1 C 0 km/h
Sensor: Nr:Datum:Temp:Abs-Feuchte:Windchill:Wind:
Aussen-T/F 326 04-06-2014 03:25:00 11 C 9.31 g/m*3 11 C 0 km/h
327 04-06-2014 03:30:00 10.9 C 9.25 g/m*3 10.9 C 0 km/h
328 04-06-2014 03:35:00 10.9 C 9.25 g/m*3 10.9 C 0 km/h
329 04-06-2014 03:40:00 10.8 C 9.19 g/m*3 10.8 C 0 km/h
330 04-06-2014 03:45:00 10.8 C 9.19 g/m*3 10.8 C 0 km/h
331 04-06-2014 03:50:00 10.8 C 9.19 g/m*3 10.8 C 0 km/h
332 04-06-2014 03:55:00 10.8 C 9.19 g/m*3 10.8 C 0 km/h
333 04-06-2014 04:00:00 10.8 C 9.19 g/m*3 10.8 C 0 km/h
334 04-06-2014 04:05:00 10.8 C 9.29 g/m*3 10.8 C 0 km/h
335 04-06-2014 04:10:00 10.8 C 9.29 g/m*3 10.8 C 1.6 km/h
336 04-06-2014 04:15:00 10.7 C 9.23 g/m*3 10.7 C 1.6 km/h
337 04-06-2014 04:20:00 10.7 C 9.23 g/m*3 10.7 C 0 km/h
338 04-06-2014 04:25:00 10.7 C 9.23 g/m*3 10.7 C 0 km/h
339 04-06-2014 04:30:00 10.6 C 9.17 g/m*3 10.6 C 0 km/h
340 04-06-2014 04:35:00 10.5 C 9.12 g/m*3 10.5 C 0 km/h
341 04-06-2014 04:40:00 10.5 C 9.12 g/m*3 10.5 C 0 km/h
342 04-06-2014 04:45:00 10.6 C 9.17 g/m*3 10.6 C 1.6 km/h
343 04-06-2014 04:50:00 10.6 C 9.17 g/m*3 10.6 C 0 km/h
344 04-06-2014 04:55:00 10.6 C 9.17 g/m*3 10.6 C 0 km/h
345 04-06-2014 05:00:00 10.7 C 9.23 g/m*3 10.7 C 0 km/h
346 04-06-2014 05:05:00 10.7 C 9.23 g/m*3 10.7 C 0 km/h
347 04-06-2014 05:10:00 10.8 C 9.39 g/m*3 10.8 C 0 km/h
348 04-06-2014 05:15:00 10.8 C 9.39 g/m*3 10.8 C 0 km/h
349 04-06-2014 05:20:00 10.9 C 9.45 g/m*3 10.9 C 0 km/h
350 04-06-2014 05:25:00 10.9 C 9.35 g/m*3 10.9 C 0 km/h
Sensor: Nr:Datum:Temp:Abs-Feuchte:Windchill:Wind:
Aussen-T/F 351 04-06-2014 05:30:00 10.9 C 9.35 g/m*3 10.9 C 0 km/h
352 04-06-2014 05:35:00 10.9 C 9.35 g/m*3 10.9 C 0 km/h
353 04-06-2014 05:40:00 10.9 C 9.35 g/m*3 10.9 C 0 km/h
354 04-06-2014 05:45:00 10.9 C 9.35 g/m*3 10.9 C 0 km/h
355 04-06-2014 05:50:00 10.9 C 9.35 g/m*3 10.9 C 0 km/h
356 04-06-2014 05:55:00 10.9 C 9.35 g/m*3 10.9 C 0 km/h
357 04-06-2014 06:00:00 10.9 C 9.35 g/m*3 10.9 C 0 km/h
358 04-06-2014 06:05:00 11.1 C 9.47 g/m*3 11.1 C 0 km/h
359 04-06-2014 06:10:00 11.2 C 9.53 g/m*3 11.2 C 1.6 km/h
360 04-06-2014 06:15:00 11.3 C 9.59 g/m*3 11.3 C 0 km/h
361 04-06-2014 06:20:00 11.4 C 9.65 g/m*3 11.4 C 1.6 km/h
362 04-06-2014 06:25:00 11.6 C 9.67 g/m*3 11.6 C 0 km/h
363 04-06-2014 06:30:00 11.7 C 9.73 g/m*3 11.7 C 0 km/h
364 04-06-2014 06:35:00 11.8 C 9.79 g/m*3 11.8 C 0 km/h
365 04-06-2014 06:40:00 11.9 C 9.74 g/m*3 11.9 C 1.6 km/h
366 04-06-2014 06:45:00 12.1 C 9.87 g/m*3 12.1 C 0 km/h
367 04-06-2014 06:50:00 12.1 C 9.76 g/m*3 12.1 C 0 km/h
368 04-06-2014 06:55:00 12.2 C 9.82 g/m*3 12.2 C 0 km/h
369 04-06-2014 07:00:00 12.3 C 9.77 g/m*3 12.3 C 0 km/h
370 04-06-2014 07:05:00 12.4 C 9.83 g/m*3 12.4 C 0 km/h
371 04-06-2014 07:10:00 12.5 C 9.89 g/m*3 12.5 C 0 km/h
372 04-06-2014 07:15:00 12.6 C 9.85 g/m*3 12.6 C 0 km/h
373 04-06-2014 07:20:00 12.7 C 9.91 g/m*3 12.7 C 0 km/h
374 04-06-2014 07:25:00 12.8 C 10.08 g/m*3 12.8 C 1.6 km/h
375 04-06-2014 07:30:00 12.9 C 10.03 g/m*3 12.9 C 0 km/h
Sensor: Nr:Datum:Temp:Abs-Feuchte:Windchill:Wind:
Aussen-T/F 376 04-06-2014 07:35:00 13.1 C 10.16 g/m*3 13.1 C 0 km/h
377 04-06-2014 07:40:00 13.3 C 10.17 g/m*3 13.3 C 0 km/h
378 04-06-2014 07:45:00 13.4 C 10.23 g/m*3 13.4 C 0 km/h
379 04-06-2014 07:50:00 13.6 C 10.36 g/m*3 13.6 C 0 km/h
380 04-06-2014 07:55:00 13.7 C 10.3 g/m*3 13.7 C 0 km/h
381 04-06-2014 08:00:00 13.8 C 10.37 g/m*3 13.8 C 0 km/h
382 04-06-2014 08:05:00 14 C 10.49 g/m*3 14 C 0 km/h
383 04-06-2014 08:10:00 14.4 C 10.75 g/m*3 14.4 C 0 km/h
384 04-06-2014 08:15:00 14.8 C 10.77 g/m*3 14.8 C 1.6 km/h
385 04-06-2014 08:20:00 15.3 C 10.97 g/m*3 15.3 C 1.6 km/h
386 04-06-2014 08:25:00 15.7 C 11.11 g/m*3 15.7 C 1.6 km/h
387 04-06-2014 08:30:00 15.9 C 11.1 g/m*3 15.9 C 1.6 km/h
388 04-06-2014 08:35:00 16.2 C 11.17 g/m*3 16.2 C 1.6 km/h
389 04-06-2014 08:40:00 16.4 C 11.17 g/m*3 16.4 C 1.6 km/h
390 04-06-2014 08:45:00 16.8 C 11.58 g/m*3 16.8 C 1.6 km/h
391 04-06-2014 08:50:00 17.1 C 11.21 g/m*3 17.1 C 6.4 km/h
392 04-06-2014 08:55:00 17.4 C 11.12 g/m*3 17.4 C 4.8 km/h
393 04-06-2014 09:00:00 17.5 C 11.18 g/m*3 17.5 C 3.2 km/h
394 04-06-2014 09:05:00 17.6 C 11.1 g/m*3 17.6 C 1.6 km/h
395 04-06-2014 09:10:00 17.7 C 10.86 g/m*3 17.7 C 9.7 km/h
396 04-06-2014 09:15:00 17.8 C 11.08 g/m*3 17.8 C 3.2 km/h
397 04-06-2014 09:20:00 17.8 C 11.08 g/m*3 17.8 C 4.8 km/h
398 04-06-2014 09:25:00 17.8 C 10.93 g/m*3 17.8 C 3.2 km/h
399 04-06-2014 09:30:00 17.9 C 11.15 g/m*3 17.9 C 8.1 km/h
400 04-06-2014 09:35:00 18.1 C 11.43 g/m*3 18.1 C 4.8 km/h
Sensor: Nr:Datum:Temp:Abs-Feuchte:Windchill:Wind:
Aussen-T/F 401 04-06-2014 09:40:00 18.3 C 11.26 g/m*3 18.3 C 4.8 km/h
402 04-06-2014 09:45:00 18.3 C 11.1 g/m*3 18.3 C 14.5 km/h
403 04-06-2014 09:50:00 18.3 C 11.1 g/m*3 18.3 C 12.9 km/h
404 04-06-2014 09:55:00 18.3 C 11.1 g/m*3 18.3 C 4.8 km/h
405 04-06-2014 11:40:00 20.4 C 12.21 g/m*3 20.4 C 6.4 km/h
406 04-06-2014 11:45:00 20.6 C 12.17 g/m*3 20.6 C 3.2 km/h
407 04-06-2014 11:50:00 20.8 C 11.77 g/m*3 20.8 C 3.2 km/h
408 04-06-2014 11:55:00 20.9 C 11.84 g/m*3 20.9 C 3.2 km/h
409 04-06-2014 12:00:00 21 C 11.54 g/m*3 21 C 8.1 km/h
410 04-06-2014 12:05:00 20.9 C 11.47 g/m*3 20.9 C 3.2 km/h
411 04-06-2014 12:10:00 20.9 C 11.84 g/m*3 20.9 C 3.2 km/h
412 04-06-2014 12:15:00 20.8 C 11.59 g/m*3 20.8 C 3.2 km/h
413 04-06-2014 12:20:00 20.6 C 12.35 g/m*3 20.6 C 1.6 km/h
414 04-06-2014 12:25:00 20.3 C 11.61 g/m*3 20.3 C 3.2 km/h
415 04-06-2014 12:30:00 20.1 C 12.34 g/m*3 20.1 C 0 km/h
416 04-06-2014 12:35:00 19.8 C 11.27 g/m*3 19.8 C 3.2 km/h
417 04-06-2014 12:40:00 19.7 C 11.04 g/m*3 19.7 C 6.4 km/h
418 04-06-2014 12:45:00 19.5 C 10.91 g/m*3 19.5 C 11.3 km/h
419 04-06-2014 12:50:00 19.3 C 10.78 g/m*3 19.3 C 9.7 km/h
420 04-06-2014 12:55:00 19.1 C 10.66 g/m*3 19.1 C 14.5 km/h
421 04-06-2014 13:00:00 18.8 C 10.79 g/m*3 18.8 C 19.3 km/h
422 04-06-2014 13:05:00 18.4 C 10.85 g/m*3 18.4 C 14.5 km/h
423 04-06-2014 13:10:00 18.2 C 11.19 g/m*3 18.2 C 11.3 km/h
424 04-06-2014 13:15:00 17.9 C 11.15 g/m*3 17.9 C 8.1 km/h
425 04-06-2014 13:20:00 17.8 C 10.93 g/m*3 17.8 C 4.8 km/h
Sensor: Nr:Datum:Temp:Abs-Feuchte:Windchill:Wind:
Aussen-T/F 426 04-06-2014 13:25:00 17.9 C 11.15 g/m*3 17.9 C 6.4 km/h
427 04-06-2014 13:30:00 18 C 11.21 g/m*3 18 C 9.7 km/h
428 04-06-2014 13:35:00 17.9 C 11.3 g/m*3 17.9 C 12.9 km/h
429 04-06-2014 13:40:00 17.8 C 11.23 g/m*3 17.8 C 8.1 km/h
430 04-06-2014 13:45:00 17.7 C 11.47 g/m*3 17.7 C 9.7 km/h
431 04-06-2014 13:50:00 17.7 C 12.07 g/m*3 17.7 C 8.1 km/h
432 04-06-2014 13:55:00 17.6 C 12 g/m*3 17.6 C 3.2 km/h
433 04-06-2014 14:00:00 17.5 C 11.63 g/m*3 17.5 C 4.8 km/h
434 04-06-2014 14:05:00 17.4 C 11.71 g/m*3 17.4 C 6.4 km/h
435 04-06-2014 14:10:00 17.3 C 11.93 g/m*3 17.3 C 6.4 km/h
436 04-06-2014 14:15:00 17.2 C 12.01 g/m*3 17.2 C 0 km/h
437 04-06-2014 14:20:00 17.1 C 11.94 g/m*3 17.1 C 0 km/h
438 04-06-2014 14:25:00 16.9 C 11.94 g/m*3 16.9 C 0 km/h
439 04-06-2014 14:30:00 16.7 C 11.94 g/m*3 16.7 C 0 km/h
440 04-06-2014 14:35:00 16.5 C 12.08 g/m*3 16.5 C 0 km/h
441 04-06-2014 14:40:00 16.4 C 12.14 g/m*3 16.4 C 0 km/h
442 04-06-2014 14:45:00 16.5 C 12.36 g/m*3 16.5 C 0 km/h
443 04-06-2014 14:50:00 16.8 C 12.87 g/m*3 16.8 C 0 km/h
444 04-06-2014 14:55:00 17.1 C 13.1 g/m*3 17.1 C 3.2 km/h
445 04-06-2014 15:00:00 17.4 C 13.19 g/m*3 17.4 C 4.8 km/h
446 04-06-2014 15:05:00 17.6 C 12.9 g/m*3 17.6 C 3.2 km/h
447 04-06-2014 15:10:00 17.8 C 12.9 g/m*3 17.8 C 4.8 km/h
448 04-06-2014 15:15:00 17.9 C 12.83 g/m*3 17.9 C 1.6 km/h
449 04-06-2014 15:20:00 17.8 C 12.9 g/m*3 17.8 C 0 km/h
450 04-06-2014 15:25:00 17.6 C 13.05 g/m*3 17.6 C 0 km/h
Sensor: Nr:Datum:Temp:Abs-Feuchte:Windchill:Wind:
Aussen-T/F 451 04-06-2014 15:30:00 17.2 C 12.89 g/m*3 17.2 C 0 km/h
452 04-06-2014 15:35:00 17.1 C 13.1 g/m*3 17.1 C 0 km/h
453 04-06-2014 15:40:00 17.2 C 13.33 g/m*3 17.2 C 0 km/h
454 04-06-2014 15:45:00 17.2 C 13.18 g/m*3 17.2 C 4.8 km/h
455 04-06-2014 15:50:00 17.2 C 13.18 g/m*3 17.2 C 3.2 km/h
456 04-06-2014 15:55:00 17.3 C 13.26 g/m*3 17.3 C 0 km/h
457 04-06-2014 16:00:00 17.4 C 13.34 g/m*3 17.4 C 0 km/h
458 04-06-2014 16:05:00 17.5 C 13.42 g/m*3 17.5 C 0 km/h
459 04-06-2014 16:10:00 17.4 C 13.34 g/m*3 17.4 C 0 km/h
460 04-06-2014 16:15:00 17.4 C 13.34 g/m*3 17.4 C 0 km/h
461 04-06-2014 16:20:00 17.4 C 13.49 g/m*3 17.4 C 0 km/h
462 04-06-2014 16:25:00 17.3 C 13.41 g/m*3 17.3 C 0 km/h
463 04-06-2014 16:30:00 17.2 C 13.33 g/m*3 17.2 C 0 km/h
464 04-06-2014 16:35:00 17.1 C 13.39 g/m*3 17.1 C 0 km/h
465 04-06-2014 16:40:00 16.7 C 13.07 g/m*3 16.7 C 0 km/h
466 04-06-2014 16:45:00 16.6 C 13.14 g/m*3 16.6 C 0 km/h
467 04-06-2014 16:50:00 16.5 C 13.06 g/m*3 16.5 C 1.6 km/h
468 04-06-2014 16:55:00 16.6 C 13.28 g/m*3 16.6 C 0 km/h
469 04-06-2014 17:00:00 16.4 C 12.98 g/m*3 16.4 C 0 km/h
470 04-06-2014 17:05:00 16.6 C 13.28 g/m*3 16.6 C 0 km/h
471 04-06-2014 17:10:00 16.6 C 13.28 g/m*3 16.6 C 0 km/h
472 04-06-2014 17:15:00 16.7 C 13.36 g/m*3 16.7 C 0 km/h
473 04-06-2014 17:20:00 16.8 C 13.58 g/m*3 16.8 C 0 km/h
474 04-06-2014 17:25:00 16.8 C 13.58 g/m*3 16.8 C 0 km/h
475 04-06-2014 17:30:00 16.8 C 13.58 g/m*3 16.8 C 0 km/h
Sensor: Nr:Datum:Temp:Abs-Feuchte:Windchill:Wind:
Aussen-T/F 476 04-06-2014 17:35:00 16.8 C 13.58 g/m*3 16.8 C 4.8 km/h
477 04-06-2014 17:40:00 16.8 C 13.58 g/m*3 16.8 C 0 km/h
478 04-06-2014 17:45:00 16.5 C 13.06 g/m*3 16.5 C 3.2 km/h
479 04-06-2014 17:50:00 16.3 C 12.9 g/m*3 16.3 C 1.6 km/h
480 04-06-2014 17:55:00 16.2 C 12.82 g/m*3 16.2 C 0 km/h
481 04-06-2014 18:00:00 16.1 C 12.75 g/m*3 16.1 C 0 km/h
482 04-06-2014 18:05:00 16.1 C 12.88 g/m*3 16.1 C 0 km/h
483 04-06-2014 18:10:00 16.2 C 12.96 g/m*3 16.2 C 0 km/h
484 04-06-2014 18:15:00 16.2 C 13.1 g/m*3 16.2 C 0 km/h
485 04-06-2014 18:20:00 16.3 C 13.18 g/m*3 16.3 C 0 km/h
486 04-06-2014 18:25:00 16.5 C 13.34 g/m*3 16.5 C 0 km/h
487 04-06-2014 18:30:00 16.6 C 13.28 g/m*3 16.6 C 0 km/h
488 04-06-2014 18:35:00 16.9 C 13.38 g/m*3 16.9 C 6.4 km/h
489 04-06-2014 18:40:00 17.2 C 13.47 g/m*3 17.2 C 0 km/h
490 04-06-2014 18:45:00 17.4 C 13.34 g/m*3 17.4 C 1.6 km/h
491 04-06-2014 18:50:00 17.8 C 13.36 g/m*3 17.8 C 1.6 km/h
492 04-06-2014 18:55:00 17.9 C 13.59 g/m*3 17.9 C 0 km/h
493 04-06-2014 19:00:00 17.9 C 13.44 g/m*3 17.9 C 0 km/h
494 04-06-2014 19:05:00 18.1 C 13.44 g/m*3 18.1 C 1.6 km/h
495 04-06-2014 19:10:00 18.1 C 13.75 g/m*3 18.1 C 3.2 km/h
496 04-06-2014 19:15:00 18.1 C 13.13 g/m*3 18.1 C 1.6 km/h
497 04-06-2014 19:20:00 18 C 13.52 g/m*3 18 C 0 km/h
498 04-06-2014 19:25:00 17.8 C 13.51 g/m*3 17.8 C 0 km/h
499 04-06-2014 19:30:00 17.6 C 13.5 g/m*3 17.6 C 0 km/h
500 04-06-2014 19:35:00 17.6 C 13.5 g/m*3 17.6 C 1.6 km/h
Sensor: Nr:Datum:Temp:Abs-Feuchte:Windchill:Wind:
Aussen-T/F 501 04-06-2014 21:45:00 14.6 C 11.89 g/m*3 14.6 C 0 km/h
502 04-06-2014 21:50:00 14.5 C 11.69 g/m*3 14.5 C 0 km/h
503 04-06-2014 21:55:00 14.5 C 11.69 g/m*3 14.5 C 1.6 km/h

Legende:
   Min
   Max


Maximal/Minimal-Werte vom 03.06.2014 - 04.06.2014

Sensor Min Max Avg
Temp
(Aussen-T/F)
9.8 °C
03-06-2014  05:20:00
23.3 °C
03-06-2014  13:35:00
15.42 °C
Abs-Feuchte
(Aussen-T/F)
8.22 g/m*3
03-06-2014  13:40:00
13.75 g/m*3
04-06-2014  19:10:00
10.41 g/m*3
Windchill
(Aussen-T/F)
9.25 C
03-06-2014  06:10:00
23.3 C
03-06-2014  13:35:00
15.39 C

Die Daten stammen von einer Davis Vantage Pro 2 Wetter-Station und werden unter Linux mit der Software wview2wettercgi und aufbereitet. Alle Angaben erfolgen ohne Gewähr für ihre Vollständigkeit oder Richtigkeit.
Kontakt: Rainer Krienke krienke@uni-koblenz.de . Meine Webseiten an der Uni Koblenz oder privat.
Version: $Revision: 0.78 $